Regional Weather Roundup
Issued by NWS

Home | Current Version | Previous Version | Text Only | Print | Product List | Glossary On
Versions: 1 2 3 4 5 6 7 8 9 10 11 12 13 14 15 16 17 18 19 20 21 22 23 24 25 26 27 28 29 30 31 32 33 34 35 36 37 38 39 40 41 42 43 44 45 46 47 48 49 50
000
ASUS45 KTFX 261504
RWRMT
MONTANA HOURLY WEATHER ROUNDUP
NATIONAL WEATHER SERVICE GREAT FALLS MT
804 AM MST MON JAN 26 2015

NOTE: "FAIR" INDICATES FEW OR NO CLOUDS BELOW 12000 FEET WITH NO
SIGNIFICANT WEATHER AND/OR OBSTRUCTIONS TO VISIBILITY.

* THESE STATIONS ARE NOT UNDER NWS QUALITY CONTROL. THEY DO NOT
   REPORT WEATHER SUCH AS PRECIPITATION OR FOG.

MTZ001>007-043-261600-
WEST OF THE DIVIDE
CITY           SKY/WX    TMP DP  RH WIND       PRES   REMARKS
KALISPELL      FOG       23  21  92 CALM      30.12S VSB M1/4
MISSOULA       PTCLDY    25  25 100 CALM      30.20F
BUTTE          PTCLDY    23  19  85 CALM      30.24F
MULLAN PASS    PTSUNNY   43  27  53 S7        30.15F
* ANACONDA     PTCLDY    46  27  48 S15G23     N/A
* ESSEX        N/A       25  24  96 SW2        N/A
* LINCOLN      N/A       20  19  96 N/A        N/A
* LOOKOUT PASS N/A       37  32  82 SE2        N/A
* POLSON       N/A       37  29  73 N/A        N/A
* RONAN APT    PTSUNNY   32  32 100 N/A        N/A
* SEELEY LAKE  N/A       20  18  92 NE1        N/A
* THOMP F APT  PTCLDY    30  28  92 NE3        N/A
$$

MTZ008-052>055-261600-
SOUTHWEST MONTANA
CITY           SKY/WX    TMP DP  RH WIND       PRES   REMARKS
BOZEMAN        PTCLDY    27  23  85 SE3       30.23S
DILLON         PTCLDY    34  27  76 S12       30.27S WCI  25
* W YELLOWSTON SUNNY     27  26  96 N/A        N/A
* THREE FORKS  PTCLDY    34  30  85 N/A        N/A
* BOULDER HILL N/A       39  21  48 SW11G16    N/A   WCI  32
* MONIDA PASS  N/A       30  30 100 E10        N/A   WCI  21
* RAYNOLDS PAS N/A       28  13  53 SE16       N/A   WCI  16
* WHITEHALL    N/A       30  22  72 NW2G9      N/A
* WISE RIVER   N/A       23  20  88 W5         N/A   WCI  16
$$

MTZ009>010-012-014-046-048-049-054-261600-
EAST SLOPES AND CENTRAL MONTANA
CITY           SKY/WX    TMP DP  RH WIND       PRES   REMARKS
CUT BANK       PTSUNNY   48  25  41 W17       29.98S
GREAT FALLS    PTSUNNY   55  28  35 SW23G31   30.02F
HELENA         SUNNY     32  27  82 SE3       30.18S
MALMSTROM AFB  CLOUDY    50  30  46 SW17      30.03F
* DEARBORN     N/A       50  27  41 SW10G17    N/A
* EAST GLACIER N/A       45  22  40 W10        N/A
* MONARCH      N/A       51  21  31 S6G13      N/A
* PENDROY      N/A       48  28  46 W22        N/A
* ROGERS PASS  N/A       43  24  47 E8G17      N/A
* SWEET GRASS  N/A       48  26  42 SW14       N/A
$$

MTZ011-013-016-021-035-040-045-047-050-051-261600-
NORTH CENTRAL MONTANA
CITY           SKY/WX    TMP DP  RH WIND       PRES   REMARKS
HAVRE          CLOUDY    45  32  60 SW25      29.95F
LEWISTOWN      PTSUNNY   48  28  46 NW5       30.06R
* CHESTER      N/A       32  28  85 NE1        N/A
* DENTON       N/A       46  29  52 SW11       N/A
* GEYSER       N/A       58  25  28 SW24G30    N/A
* JUDITH GAP   N/A       50  29  44 W16G21     N/A
* LOMA         N/A       47  31  54 SW10       N/A
$$

MTZ017>020-022>027-061-062-261600-
NORTHEAST MONTANA
CITY           SKY/WX    TMP DP  RH WIND       PRES   REMARKS
GLASGOW        PTCLDY    28  27  96 S5        29.97R WCI  22
GLENDIVE       PTCLDY    34  30  85 W9        30.00S WCI  27
JORDAN         PTSUNNY   36  30  79 W5        29.99S WCI  32
SIDNEY         SUNNY     32  28  85 CALM      30.00R
WOLF POINT     SUNNY     28  27  96 CALM      29.97F
* BEAVER HILL  N/A       35  31  85 W5         N/A   WCI  31
* CIRCLE       N/A       35  31  85 N/A        N/A
* LINDSAY DVD  N/A       39  31  73 W11        N/A   WCI  32
* NAVAJO       N/A       37  27  67 W11        N/A   WCI  29
* SACO         N/A       26  24  92 N3         N/A
$$

MTZ028>042-056>058-261600-
SOUTHCENTRAL AND SOUTHEAST MONTANA
CITY           SKY/WX    TMP DP  RH WIND       PRES   REMARKS
BAKER          PTSUNNY   34  28  79 NW6       30.01R WCI  29
BILLINGS       PTCLDY    39  28  65 SW17      30.09F WCI  30
LIVINGSTON     PTCLDY    52  25  35 SW38G49   30.13F
MILES CITY     PTSUNNY   36  30  79 SW6       30.02F WCI  31
* LAUREL APT   PTCLDY    37  27  67 S8         N/A   WCI  31
* ROUNDUP APT  PTCLDY    48  27  44 N/A        N/A
* ALZADA       N/A       43  30  60 W5         N/A
* HYSHAM       N/A       47  26  44 W7         N/A
* LAME DEER    N/A       48  28  46 W13G20     N/A
* REED POINT   N/A       38  27  65 N/A        N/A
* ROSCOE HILL  N/A       53  13  20 SE5        N/A
$$

REGIONAL REPORTS...DAKOTAS
CITY           SKY/WX    TMP DP  RH WIND       PRES   REMARKS
WILLISTON      SUNNY     34  28  79 W8        29.96R WCI  27
DICKINSON      PTCLDY    36  30  79 W12       29.94R WCI  28
CROSBY         SUNNY     36  32  85 W12       29.93R WCI  28
WATFORD CITY   SUNNY     32  32 100 SW5       29.95R WCI  27
BISMARCK       PTCLDY    37  32  82 NW8       29.90R WCI  31
GRAND FORKS    PTSUNNY   37  30  76 NW20G26   29.71R WCI  27
FARGO          SUNNY     37  30  76 W14       29.72R WCI  28
BUFFALO SD     SUNNY     39  30  70 W8        29.93R WCI  33
RAPID CITY     SUNNY     46  28  50 SW3       30.04R
$$

REGIONAL REPORTS...WYOMING/IDAHO/WASHINGTON
CITY           SKY/WX    TMP DP  RH WIND       PRES   REMARKS
GILLETTE       SUNNY     45  28  51 W9        30.12R
SHERIDAN       PTCLDY    43  27  53 S6        30.11R
CODY           PTCLDY    30  25  82 N6        30.21S WCI  24
YELLOWSTONE LA PTCLDY     9   3  76 CALM      30.47R
SALMON         CLOUDY    23  21  92 SE3       30.41S VSB M1/4
MULLAN PASS    PTSUNNY   43  27  53 S7        30.15S
SAND POINT     FOG       34  34 100 CALM      30.13F VSB 1/2
SPOKANE        FOG       36  36 100 NE8       30.07F VSB M1/4 WCI  30

$$



USA.gov is the U.S. government's official web portal to all federal, state and local government web resources and services.